sat.trackr.live / text

‹ back to catalog

STARLINK-4615

NORAD 53620 · 2022-104AJ

PAYLOAD ACTIVE UNKNOWN

§ Identity

Operator
Country
US
Launch date
2022-08-28
Launch site
AFETR
Launch vehicle
Mass (kg)
RCS (m²)

Purposes: comms

External: N2YO · Heavens-Above · Gunter

§ Orbital elements

Epoch: 2026-09-20T21:21:01.286208Z

Period
93.85 min
Inclination
53.1594°
Eccentricity
0.0001133
Mean motion
15.34384874 rev/d
Perigee alt
462.0 km
Apogee alt
463.5 km
Semi-major
6,840.9 km
B*
1.0702e-5
RAAN
65.9411°
Arg perigee
81.3687°
Mean anomaly
278.7444°
Rev number
22,537

§ Raw data

STARLINK-46151 53620U 22104AJ  26263.88959822 -.00000015  00000+0  10702-4 0  99952 53620  53.1594  65.9411 0001133  81.3687 278.7444 15.34384874225374

JSON: /api/v1/satellites/53620 · /tle

For live sub-satellite position, see the globe view (requires WebGL).

§ Visibility from observer

Set your observer location to see the next 7 days of passes ≥ 10°. The values pass through the URL so the page stays shareable.

No JS? Fill the form by hand. The geolocation button needs JavaScript.